When you browse on this site, cookies collect data to enhance your experience and personalize the content and advertising you see.
Visit our Privacy Policy to learn more. By continuing to use the site, you agree to this use of cookies and data.
  • In Czech Republic
  • List of Countries
  • For 7 days
  • Water Temperature
  • Satellite Maps
  • Weather Map
  • Weather Widgets
  • user-avatar
    Login

    Hourly Weather Oaxaca

    Today, 17 January, Thursday

    Time Temperature Precipitation Wind Pressure Humidity
    00:00 +15°C° 0 mm 2 mps 635 mmHg 91%
    01:00 +14°C° 0 mm 1 mps 635 mmHg 91%
    02:00 +14°C° 0 mm 1 mps 634 mmHg 91%
    03:00 +14°C° 0 mm 1 mps 634 mmHg 91%
    04:00 +14°C° 0 mm 1 mps 634 mmHg 91%
    05:00 +13°C° 0 mm 2 mps 634 mmHg 91%
    06:00 +13°C° 0 mm 2 mps 634 mmHg 91%
    07:00 +14°C° 0 mm 2 mps 635 mmHg 85%
    08:00 +16°C° 0 mm 2 mps 635 mmHg 80%
    09:00 +17°C° 0 mm 2 mps 636 mmHg 75%
    10:00 +18°C° 0 mm 2 mps 636 mmHg 68%
    11:00 +20°C° 0 mm 2 mps 637 mmHg 62%
    12:00 +23°C° 0 mm 2 mps 637 mmHg 56%
    13:00 +23°C° 0 mm 2 mps 637 mmHg 55%
    14:00 +23°C° 0 mm 2 mps 636 mmHg 55%
    15:00 +23°C° 0 mm 2 mps 635 mmHg 54%
    16:00 +21°C° 0 mm 2 mps 635 mmHg 59%
    17:00 +20°C° 0 mm 2 mps 635 mmHg 64%
    18:00 +19°C° 0 mm 2 mps 635 mmHg 69%
    19:00 +18°C° 0 mm 2 mps 635 mmHg 75%
    20:00 +16°C° 0 mm 2 mps 635 mmHg 81%
    21:00 +15°C° 0 mm 2 mps 635 mmHg 88%
    22:00 +14°C° 0 mm 2 mps 635 mmHg 89%
    23:00 +14°C° 0 mm 2 mps 635 mmHg 90%

    Tomorrow, 18 January, Friday

    Time Temperature Precipitation Wind Pressure Humidity
    00:00 +13°C° 0 mm 2 mps 634 mmHg 91%
    01:00 +13°C° 0 mm 2 mps 634 mmHg 89%
    02:00 +13°C° 0 mm 1 mps 634 mmHg 86%
    03:00 +12°C° 0 mm 1 mps 633 mmHg 84%
    04:00 +12°C° 0 mm 1 mps 633 mmHg 81%
    05:00 +12°C° 0 mm 1 mps 633 mmHg 79%
    06:00 +12°C° 0 mm 1 mps 633 mmHg 76%
    07:00 +14°C° 0 mm 1 mps 634 mmHg 68%
    08:00 +15°C° 0 mm 1 mps 635 mmHg 60%
    09:00 +18°C° 0 mm 1 mps 636 mmHg 52%
    10:00 +20°C° 0 mm 1 mps 636 mmHg 45%
    11:00 +23°C° 0 mm 1 mps 637 mmHg 38%
    12:00 +23°C° 0 mm 0 mps 637 mmHg 31%
    13:00 +24°C° 0 mm 0 mps 636 mmHg 29%
    14:00 +26°C° 0 mm 1 mps 636 mmHg 28%
    15:00 +27°C° 0 mm 1 mps 635 mmHg 26%
    16:00 +25°C° 0 mm 1 mps 635 mmHg 33%
    17:00 +23°C° 0 mm 1 mps 634 mmHg 39%
    18:00 +21°C° 0 mm 1 mps 633 mmHg 46%
    19:00 +20°C° 0 mm 1 mps 633 mmHg 52%
    20:00 +16°C° 0 mm 0 mps 633 mmHg 58%
    21:00 +15°C° 0 mm 0 mps 633 mmHg 64%
    22:00 +14°C° 0 mm 0 mps 633 mmHg 64%
    23:00 +14°C° 0 mm 0 mps 633 mmHg 65%

    Day after tomorrow, 19 January, Saturday

    Time Temperature Precipitation Wind Pressure Humidity
    00:00 +14°C° 0 mm 0 mps 633 mmHg 65%
    01:00 +14°C° 0 mm 1 mps 632 mmHg 65%
    02:00 +14°C° 0 mm 1 mps 632 mmHg 65%
    03:00 +14°C° 0 mm 1 mps 631 mmHg 64%
    04:00 +14°C° 0 mm 1 mps 631 mmHg 65%
    05:00 +14°C° 0 mm 1 mps 631 mmHg 66%
    06:00 +14°C° 0 mm 1 mps 631 mmHg 66%
    07:00 +16°C° 0 mm 1 mps 632 mmHg 62%
    08:00 +19°C° 0 mm 1 mps 633 mmHg 57%
    09:00 +21°C° 0 mm 1 mps 635 mmHg 52%
    10:00 +23°C° 0 mm 1 mps 635 mmHg 45%
    11:00 +25°C° 0 mm 1 mps 636 mmHg 39%
    12:00 +27°C° 0 mm 1 mps 636 mmHg 32%
    13:00 +28°C° 0 mm 1 mps 635 mmHg 32%
    14:00 +28°C° 0 mm 2 mps 635 mmHg 31%
    15:00 +28°C° 0 mm 2 mps 634 mmHg 31%
    16:00 +26°C° 0 mm 3 mps 634 mmHg 37%
    17:00 +25°C° 0 mm 3 mps 634 mmHg 44%
    18:00 +22°C° 0 mm 3 mps 634 mmHg 50%
    19:00 +20°C° 0 mm 3 mps 634 mmHg 60%
    20:00 +19°C° 0 mm 3 mps 635 mmHg 69%
    21:00 +17°C° 0 mm 3 mps 635 mmHg 79%
    22:00 +16°C° 0 mm 3 mps 635 mmHg 79%
    23:00 +16°C° 0 mm 3 mps 635 mmHg 80%

    20 January, Sunday

    Time Temperature Precipitation Wind Pressure Humidity
    00:00 +14°C° 0 mm 3 mps 635 mmHg 81%
    01:00 +13°C° 0 mm 3 mps 635 mmHg 79%
    02:00 +13°C° 0 mm 3 mps 635 mmHg 78%
    03:00 +12°C° 0 mm 3 mps 634 mmHg 76%
    04:00 +11°C° 0 mm 3 mps 634 mmHg 76%
    05:00 +11°C° 0 mm 3 mps 634 mmHg 77%
    06:00 +10°C° 0 mm 3 mps 634 mmHg 77%
    07:00 +11°C° 0 mm 3 mps 635 mmHg 74%
    08:00 +11°C° 0 mm 3 mps 636 mmHg 71%
    09:00 +12°C° 0 mm 3 mps 637 mmHg 69%
    10:00 +14°C° 0 mm 3 mps 637 mmHg 63%
    11:00 +17°C° 0 mm 3 mps 637 mmHg 58%
    12:00 +18°C° 0 mm 3 mps 638 mmHg 52%
    13:00 +19°C° 0 mm 3 mps 637 mmHg 50%
    14:00 +20°C° 0 mm 3 mps 637 mmHg 49%
    15:00 +21°C° 0 mm 3 mps 636 mmHg 47%
    16:00 +19°C° 0 mm 3 mps 636 mmHg 52%
    17:00 +18°C° 0 mm 3 mps 635 mmHg 58%
    18:00 +16°C° 0 mm 3 mps 635 mmHg 64%
    19:00 +13°C° 0 mm 3 mps 635 mmHg 70%
    20:00 +12°C° 0 mm 3 mps 635 mmHg 76%
    21:00 +10°C° 0 mm 2 mps 635 mmHg 83%
    22:00 +10°C° 0 mm 2 mps 635 mmHg 82%
    23:00 +9°C° 0 mm 2 mps 634 mmHg 81%

    21 January, Monday

    Time Temperature Precipitation Wind Pressure Humidity
    00:00 +9°C° 0 mm 2 mps 634 mmHg 80%
    01:00 +8°C° 0 mm 2 mps 634 mmHg 78%
    02:00 +8°C° 0 mm 2 mps 633 mmHg 76%
    03:00 +8°C° 0 mm 2 mps 633 mmHg 75%
    04:00 +7°C° 0 mm 2 mps 633 mmHg 73%
    05:00 +7°C° 0 mm 2 mps 633 mmHg 71%
    06:00 +7°C° 0 mm 2 mps 633 mmHg 69%
    07:00 +9°C° 0 mm 2 mps 634 mmHg 60%
    08:00 +13°C° 0 mm 2 mps 635 mmHg 51%
    09:00 +15°C° 0 mm 2 mps 636 mmHg 42%
    10:00 +19°C° 0 mm 1 mps 636 mmHg 35%
    11:00 +22°C° 0 mm 1 mps 637 mmHg 27%
    12:00 +25°C° 0 mm 1 mps 638 mmHg 20%
    13:00 +26°C° 0 mm 1 mps 637 mmHg 19%
    14:00 +26°C° 0 mm 1 mps 636 mmHg 18%
    15:00 +27°C° 0 mm 1 mps 636 mmHg 18%
    16:00 +25°C° 0 mm 1 mps 635 mmHg 24%
    17:00 +23°C° 0 mm 1 mps 634 mmHg 31%
    18:00 +20°C° 0 mm 1 mps 634 mmHg 38%
    19:00 +17°C° 0 mm 0 mps 633 mmHg 41%
    20:00 +15°C° 0 mm 0 mps 633 mmHg 44%
    21:00 +13°C° 0 mm 0 mps 633 mmHg 47%
    22:00 +13°C° 0 mm 0 mps 633 mmHg 47%
    23:00 +13°C° 0 mm 1 mps 633 mmHg 46%

    22 January, Tuesday

    Time Temperature Precipitation Wind Pressure Humidity
    00:00 +13°C° 0 mm 1 mps 632 mmHg 46%
    01:00 +13°C° 0 mm 1 mps 632 mmHg 47%
    02:00 +12°C° 0 mm 1 mps 631 mmHg 48%
    03:00 +12°C° 0 mm 1 mps 631 mmHg 49%
    04:00 +12°C° 0 mm 1 mps 631 mmHg 52%
    05:00 +12°C° 0 mm 1 mps 631 mmHg 55%
    06:00 +12°C° 0 mm 1 mps 631 mmHg 58%
    07:00 +14°C° 0 mm 1 mps 632 mmHg 53%
    08:00 +16°C° 0 mm 1 mps 633 mmHg 48%
    09:00 +20°C° 0 mm 1 mps 634 mmHg 43%
    10:00 +22°C° 0 mm 1 mps 635 mmHg 38%
    11:00 +24°C° 0 mm 2 mps 635 mmHg 32%
    12:00 +26°C° 0 mm 2 mps 635 mmHg 26%
    13:00 +27°C° 0 mm 2 mps 635 mmHg 25%
    14:00 +27°C° 0 mm 3 mps 634 mmHg 24%
    15:00 +28°C° 0 mm 3 mps 634 mmHg 23%
    16:00 +26°C° 0 mm 2 mps 633 mmHg 29%
    17:00 +24°C° 0 mm 2 mps 633 mmHg 36%
    18:00 +21°C° 0 mm 2 mps 632 mmHg 43%
    19:00 +20°C° 0 mm 1 mps 632 mmHg 49%
    20:00 +19°C° 0 mm 1 mps 632 mmHg 55%
    21:00 +16°C° 0 mm 1 mps 632 mmHg 61%
    22:00 +16°C° 0 mm 1 mps 632 mmHg 65%
    23:00 +15°C° 0 mm 1 mps 632 mmHg 69%
    Show more